TimeMST,TemperatureF,Dew PointF,Humidity,Sea Level PressureIn,VisibilityMPH,Wind Direction,Wind SpeedMPH,Gust SpeedMPH,PrecipitationIn,Events,Conditions,WindDirDegrees,DateUTC
12:15 AM,39.2,10.4,31,30.18,10.0,West,6.9,-,N/A,,Clear,260,2012-11-04 06:15:00
12:35 AM,39.2,10.4,31,30.19,10.0,West,5.8,-,N/A,,Scattered Clouds,270,2012-11-04 06:35:00
12:55 AM,41.0,14.0,33,30.19,10.0,West,5.8,-,N/A,,Mostly Cloudy,270,2012-11-04 06:55:00
1:15 AM,42.8,15.8,34,30.19,10.0,West,4.6,-,N/A,,Overcast,260,2012-11-04 07:15:00
1:35 AM,42.8,15.8,34,30.19,10.0,West,4.6,-,N/A,,Overcast,260,2012-11-04 07:35:00
1:55 AM,41.0,17.6,39,30.20,10.0,West,4.6,-,N/A,,Overcast,260,2012-11-04 07:55:00
1:15 AM,41.0,17.6,39,30.20,10.0,West,5.8,-,N/A,,Overcast,260,2012-11-04 08:15:00
1:35 AM,42.8,19.4,39,30.20,10.0,West,4.6,-,N/A,,Overcast,270,2012-11-04 08:35:00
1:55 AM,42.8,19.4,39,30.20,10.0,West,4.6,-,N/A,,Overcast,260,2012-11-04 08:55:00
2:15 AM,41.0,19.4,42,30.20,10.0,WSW,5.8,-,N/A,,Overcast,240,2012-11-04 09:15:00
2:35 AM,41.0,19.4,42,30.20,10.0,WSW,3.5,-,N/A,,Overcast,250,2012-11-04 09:35:00
2:55 AM,37.4,17.6,45,30.19,10.0,WSW,6.9,-,N/A,,Mostly Cloudy,250,2012-11-04 09:55:00
3:15 AM,37.4,17.6,45,30.20,10.0,West,5.8,-,N/A,,Mostly Cloudy,280,2012-11-04 10:15:00
3:35 AM,37.4,19.4,48,30.20,10.0,West,5.8,-,N/A,,Scattered Clouds,260,2012-11-04 10:35:00
3:55 AM,41.0,21.2,45,30.20,10.0,West,8.1,-,N/A,,Clear,260,2012-11-04 10:55:00
4:15 AM,37.4,21.2,52,30.20,10.0,West,9.2,-,N/A,,Clear,260,2012-11-04 11:15:00
4:35 AM,37.4,23.0,56,30.20,10.0,WSW,10.4,-,N/A,,Clear,250,2012-11-04 11:35:00
4:55 AM,37.4,24.8,60,30.20,10.0,West,6.9,-,N/A,,Clear,260,2012-11-04 11:55:00
5:15 AM,37.4,24.8,60,30.20,10.0,WSW,8.1,-,N/A,,Clear,250,2012-11-04 12:15:00
5:35 AM,39.2,24.8,56,30.20,10.0,WSW,6.9,-,N/A,,Clear,250,2012-11-04 12:35:00
6:15 AM,37.4,24.8,60,30.19,10.0,West,9.2,-,N/A,,Clear,260,2012-11-04 13:15:00
6:35 AM,37.4,24.8,60,30.20,10.0,West,6.9,-,N/A,,Clear,260,2012-11-04 13:35:00
6:55 AM,37.4,24.8,60,30.20,10.0,West,5.8,-,N/A,,Clear,260,2012-11-04 13:55:00
7:15 AM,37.4,24.8,60,30.21,10.0,West,3.5,-,N/A,,Clear,260,2012-11-04 14:15:00
7:35 AM,37.4,23.0,56,30.22,10.0,WNW,3.5,-,N/A,,Clear,300,2012-11-04 14:35:00
7:55 AM,37.4,24.8,60,30.23,10.0,West,4.6,-,N/A,,Clear,270,2012-11-04 14:55:00
8:15 AM,39.2,23.0,52,30.23,10.0,WNW,3.5,-,N/A,,Clear,290,2012-11-04 15:15:00
8:35 AM,41.0,21.2,45,30.24,10.0,WNW,3.5,-,N/A,,Clear,300,2012-11-04 15:35:00
8:55 AM,42.8,23.0,46,30.25,10.0,WSW,4.6,-,N/A,,Clear,250,2012-11-04 15:55:00
9:15 AM,42.8,26.6,53,30.25,10.0,WSW,5.8,-,N/A,,Scattered Clouds,250,2012-11-04 16:15:00
9:35 AM,42.8,26.6,53,30.26,10.0,WSW,3.5,-,N/A,,Scattered Clouds,240,2012-11-04 16:35:00
9:55 AM,44.6,24.8,46,30.27,10.0,Calm,Calm,-,N/A,,Clear,0,2012-11-04 16:55:00
10:15 AM,44.6,26.6,49,30.27,10.0,Calm,Calm,-,N/A,,Clear,0,2012-11-04 17:15:00
10:35 AM,46.4,23.0,40,30.28,10.0,ESE,4.6,-,N/A,,Clear,110,2012-11-04 17:35:00
10:55 AM,46.4,24.8,43,30.28,10.0,East,3.5,-,N/A,,Clear,100,2012-11-04 17:55:00
11:15 AM,48.2,23.0,37,30.28,10.0,SSE,3.5,-,N/A,,Clear,160,2012-11-04 18:15:00
11:35 AM,48.2,23.0,37,30.28,10.0,NNE,4.6,-,N/A,,Clear,30,2012-11-04 18:35:00
11:55 AM,50.0,23.0,35,30.28,10.0,SE,5.8,-,N/A,,Clear,130,2012-11-04 18:55:00
12:15 PM,50.0,23.0,35,30.28,10.0,East,9.2,-,N/A,,Clear,90,2012-11-04 19:15:00
12:35 PM,50.0,21.2,32,30.29,10.0,East,4.6,-,N/A,,Clear,90,2012-11-04 19:35:00
12:55 PM,50.0,23.0,35,30.29,10.0,ENE,10.4,-,N/A,,Clear,70,2012-11-04 19:55:00
1:15 PM,48.2,23.0,37,30.30,10.0,ENE,8.1,-,N/A,,Scattered Clouds,60,2012-11-04 20:15:00
1:35 PM,50.0,23.0,35,30.29,10.0,North,8.1,-,N/A,,Scattered Clouds,360,2012-11-04 20:35:00
1:55 PM,48.2,24.8,40,30.29,10.0,NE,10.4,-,N/A,,Scattered Clouds,50,2012-11-04 20:55:00
2:15 PM,48.2,24.8,40,30.29,10.0,North,8.1,-,N/A,,Clear,10,2012-11-04 21:15:00
2:35 PM,48.2,24.8,40,30.29,10.0,North,8.1,-,N/A,,Clear,10,2012-11-04 21:35:00
3:15 PM,48.2,26.6,43,30.30,10.0,North,6.9,-,N/A,,Mostly Cloudy,360,2012-11-04 22:15:00
3:35 PM,46.4,26.6,46,30.31,10.0,NE,6.9,-,N/A,,Mostly Cloudy,40,2012-11-04 22:35:00
4:15 PM,44.6,26.6,49,30.32,10.0,North,6.9,-,N/A,,Overcast,10,2012-11-04 23:15:00
4:35 PM,44.6,26.6,49,30.32,10.0,North,6.9,-,N/A,,Overcast,360,2012-11-04 23:35:00
4:55 PM,44.6,26.6,49,30.32,10.0,North,6.9,-,N/A,,Overcast,360,2012-11-04 23:55:00
5:15 PM,42.8,26.6,53,30.32,10.0,NNW,8.1,-,N/A,,Overcast,340,2012-11-05 00:15:00
5:35 PM,42.8,26.6,53,30.33,10.0,NNW,8.1,-,N/A,,Mostly Cloudy,340,2012-11-05 00:35:00
5:55 PM,41.0,26.6,57,30.34,10.0,NW,4.6,-,N/A,,Mostly Cloudy,310,2012-11-05 00:55:00
6:15 PM,41.0,26.6,57,30.33,10.0,WNW,6.9,-,N/A,,Scattered Clouds,300,2012-11-05 01:15:00
6:35 PM,42.8,26.6,53,30.34,10.0,Calm,Calm,-,N/A,,Clear,0,2012-11-05 01:35:00
6:55 PM,42.8,26.6,53,30.34,10.0,Calm,Calm,-,N/A,,Clear,0,2012-11-05 01:55:00
7:15 PM,41.0,26.6,57,30.34,10.0,Calm,Calm,-,N/A,,Clear,0,2012-11-05 02:15:00
7:35 PM,39.2,26.6,61,30.34,10.0,North,8.1,-,N/A,,Clear,360,2012-11-05 02:35:00
7:55 PM,37.4,26.6,65,30.35,10.0,NNW,9.2,-,N/A,,Clear,340,2012-11-05 02:55:00
8:15 PM,37.4,26.6,65,30.35,10.0,NNW,11.5,-,N/A,,Clear,330,2012-11-05 03:15:00
8:35 PM,37.4,26.6,65,30.35,10.0,NNW,10.4,-,N/A,,Clear,330,2012-11-05 03:35:00
9:15 PM,35.6,26.6,70,30.36,10.0,NW,3.5,-,N/A,,Clear,310,2012-11-05 04:15:00
9:35 PM,41.0,26.6,57,30.34,10.0,SSW,3.5,-,N/A,,Clear,210,2012-11-05 04:35:00
9:55 PM,41.0,26.6,57,30.35,10.0,SW,3.5,-,N/A,,Clear,230,2012-11-05 04:55:00
10:15 PM,39.2,28.4,65,30.34,10.0,Calm,Calm,-,N/A,,Clear,0,2012-11-05 05:15:00
10:35 PM,37.4,28.4,70,30.35,10.0,Calm,Calm,-,N/A,,Clear,0,2012-11-05 05:35:00
10:55 PM,39.2,28.4,65,30.34,10.0,Calm,Calm,-,N/A,,Clear,0,2012-11-05 05:55:00